Regional Weather Roundup
Issued by NWS

Home | Current Version | Previous Version | Graphics & Text | Print | Product List | Glossary On
Versions: 1 2 3 4 5 6 7 8 9 10 11 12 13 14 15 16 17 18 19 20 21 22 23 24 25 26 27 28 29 30 31 32 33 34 35 36 37 38 39 40 41 42 43 44 45 46 47 48 49 50
000
ASUS45 KCYS 141310
RWRWY

WYOMING REGIONAL WEATHER ROUNDUP
NATIONAL WEATHER SERVICE CHEYENNE WY
600 AM MST SUN FEB 14 2016

NOTE:  "FAIR" INDICATES FEW OR NO CLOUDS BELOW 12,000 FEET
WITH NO SIGNIFICANT WEATHER AND/OR OBSTRUCTIONS TO VISIBILITY.

WYZ001-141400-
YELLOWSTONE NATIONAL PARK

CITY           SKY/WX    TMP DP  RH WIND       PRES   REMARKS
LK YELLOWSTONE   N/A     23  19  85 W10       29.98F WCI  12
W YELLOWSTONE  NOT AVBL

$$
WYZ002>013-054>058-071-098>099-141400-
NORTHERN WYOMING

CITY           SKY/WX    TMP DP  RH WIND       PRES   REMARKS
JACKSON        MOCLDY    28  28 100 S14       30.04F WCI  17
CODY           FAIR      39  18  41 W12G17    29.86S WCI  32
GREYBULL       FAIR      27  22  81 SE7       29.86F WCI  19
WORLAND        FAIR      22  20  92 CALM      29.90R
SHERIDAN       CLOUDY    34  19  55 S2        29.84S
BUFFALO        CLOUDY    35  17  47 NW3       29.84F
GILLETTE       MOCLDY    30  20  66 CALM      29.84F
HULETT         PTSUNNY   32  25  74 SW9       29.84F WCI  24
NEWCASTLE      FAIR      27  21  80 CALM      29.87F

$$
WYZ014>020-022>026-101>103-141400-
CENTRAL WYOMING

CITY           SKY/WX    TMP DP  RH WIND       PRES   REMARKS
BIG PINEY      MOCLDY    20  16  84 NE10      30.09R WCI   9
PINEDALE       FLURRIES  23  23 100 MISG      30.09S
DUBOIS         LGT SNOW  27  23  86 N15       29.96S WCI  15
LANDER         FAIR      26  14  60 SW10      29.91R WCI  16
RIVERTON       FAIR      27  15  61 SW5       29.90F WCI  22
CASPER         FAIR      29  18  63 SW15      29.88S WCI  18
DOUGLAS        FAIR      23  19  85 S3        29.87F

$$
WYZ021-027>030-104>119-141400-
SOUTHERN WYOMING

CITY           SKY/WX    TMP DP  RH WIND       PRES   REMARKS
EVANSTON       FAIR      29  19  66 W10       30.16R WCI  20
FORT BRIDGER   PTSUNNY   32  25  74 W15       30.16R WCI  22
ROCK SPRINGS   FAIR      31  21  66 W23G31    30.05F WCI  18
DIXON          CLOUDY    24  20  84 CALM      30.13F
RAWLINS        FAIR      29  16  58 W33G44    29.97F WCI  13
SARATOGA       FAIR      32  18  55 W26G32    30.02F WCI  18
LARAMIE        FAIR      33  12  41 W23G30    29.93F WCI  21
CHEYENNE       FAIR      37  10  32 SW8       29.90F WCI  31
TORRINGTON     FAIR      35  20  54 NW9       29.87F WCI  28
PINE BLUFFS    FAIR      25  21  86 W3        29.90F

$$



USA.gov is the U.S. government's official web portal to all federal, state and local government web resources and services.